This demonstration page uses our WeatherBlox Daily Observations layout. Learn more.

Left ArrowRight Arrow

36.19886, -115.1175

Hourly Observations for November 9, 2015

Temp ( °F °C ) Dew Point ( °F °C ) Humidity (%) Winds ( mph kmh ) Pressure ( in mb ) Visibility ( mi km ) Precip ( " mm )
12:53 am 00:53 Clear 48 8.9 31 -0.6 52 52 NW 6 9 29.93 1014 10 16 0.00 0.00
1:53 am 01:53 Clear 47 8.3 31 -0.6 54 54 NNW 5 7 29.93 1013 10 16 0.00 0.00
2:53 am 02:53 Clear 46 7.8 32 0 58 58 E 5 7 29.90 1013 10 16 0.00 0.00
3:53 am 03:53 Clear 46 7.8 32 0 58 58 Calm 29.91 1013 10 16 0.00 0.00
4:53 am 04:53 Clear 47 8.3 31 -0.6 54 54 E 6 9 29.90 1013 10 16 0.00 0.00
5:53 am 05:53 Clear 46 7.8 32 0 58 58 Calm 29.91 1013 10 16 0.00 0.00
6:53 am 06:53 Sunny 47 8.3 33 0.6 59 59 Calm 29.92 1013 10 16 0.00 0.00
7:53 am 07:53 Sunny 54 12.2 32 0 43 43 ESE 8 13 29.93 1014 10 16 0.00 0.00
8:53 am 08:53 Sunny 59 15 28 -2.2 31 31 ESE 12 19 29.91 1013 10 16 0.00 0.00
9:53 am 09:53 Sunny 66 18.9 21 -6.1 18 18 SSE 23 37 29.89 1012 10 16 0.00 0.00
10:53 am 10:53 Sunny 69 20.6 25 -3.9 19 19 SSW 16 26 29.87 1012 10 16 0.00 0.00
11:53 am 11:53 Sunny 69 20.6 30 -1.1 23 23 SSW 22 35 29.85 1011 10 16 0.00 0.00
12:53 pm 12:53 Sunny 70 21.1 30 -1.1 23 23 SW 13 20 29.83 1010 10 16 0.00 0.00
1:53 pm 13:53 Sunny 69 20.6 31 -0.6 24 24 SW 23 37 29.83 1010 10 16 0.00 0.00
2:53 pm 14:53 Sunny 68 20 28 -2.2 22 22 WSW 20 31 29.84 1011 10 16 0.00 0.00
3:53 pm 15:53 Sunny 66 18.9 32 0 28 28 W 15 24 29.85 1011 10 16 0.00 0.00
4:53 pm 16:53 Clear 64 17.8 33 0.6 32 32 SSW 13 20 29.85 1011 10 16 0.00 0.00
5:53 pm 17:53 Clear 62 16.7 36 2.2 38 38 SW 15 24 29.87 1011 10 16 0.00 0.00
6:53 pm 18:53 Clear 61 16.1 36 2.2 39 39 SW 13 20 29.87 1012 10 16 0.00 0.00
7:53 pm 19:53 Clear 61 16.1 34 1.1 36 36 SW 15 24 29.87 1011 10 16 0.00 0.00
8:53 pm 20:53 Clear 60 15.6 33 0.6 36 36 WSW 17 28 29.87 1012 10 16 0.00 0.00
9:53 pm 21:53 Clear 59 15 33 0.6 38 38 SW 14 22 29.88 1012 10 16 0.00 0.00
10:53 pm 22:53 Clear 58 14.4 33 0.6 39 39 WSW 14 22 29.87 1012 10 16 0.00 0.00
11:53 pm 23:53 Clear 56 13.3 33 0.6 42 42 SW 8 13 29.88 1012 10 16 0.00 0.00

Powered by AerisWeather